Terug naar catalogus

STARLINK-34136

ActiefCommunicatieVLEO
NORAD 64112·PAYLOAD·🇺🇸 United States

Gelanceerd May 23, 2025 vanaf Vandenberg Space Force Base

Loading…

Volgende Passages (komende 24 uur)

TLE

VersSource: CelesTrak SupGP

Epoch: Sep 15, 2026, 03:08 UTC

1 64112C 25110S   26258.13104167 -.00065474  00000+0 -21047-2 0  2580
2 64112  53.1590 225.2797 0001435  83.6275  95.4968 15.31746600    12

Volg STARLINK-34136 in realtime met AllMySat

Download on the App Store